FENGYUN 1C DEB, 30113

Orbit data source: Space-Track

FENGYUN 1C DEB, 30113 is space debris in SSO originally from a launch on Mon, 10 May 1999 UTC launched from the Taiyaun Space Center, China (TSC). Fengyun 1C debris stems from the Chinese weather satellite Fengyun-1C, which was intentionally destroyed by a Chinese anti-satellite missile in 2007. This event dramatically increased the amount of space debris, with thousands of trackable fragments posing hazards to satellites and human spaceflight. The Fengyun 1C debris cloud has become a focal point in discussions about space sustainability and the need for international regulations to prevent the creation of new debris.

Loading next visibility...
Identifier
30113, 1999-025RS
Orbit
SSO
Country
Flag of CNCN / PRC
Related business
Manufacturer
Unknown
Mission
Spacecraft
Bus & Motor
Unknown
Mass
Unknown
Launch date (UTC)
1999-05-10 (27 years ago)
Launch vehicle
Unknown
Launch site
Taiyaun Space Center, China (TSC)
Object type
Payload
Rocket body
Debris
Shape & HBR
Unknown shape, 0.1 m
Radar Cross Section
Medium (>0.1 m² and <1 m²)

Expand to show TLE details & history
Last TLE update: 1 week ago

TLE from 1 week ago
0 FENGYUN 1C DEB
1 30113U 99025RS  26154.60460784  .00005145  00000-0  14001-2 0  9999
2 30113  99.0310  23.1996 0036409 205.3433 209.2470 14.47542272  4066
Epoch: 2026-06-03T14:30Z
TLE epoch observation values (Epoch: 2026-06-03T14:30:38.117Z)
Latitude
53.5092°
Longitude
-98.86056°
Altitude
765.041 km
Speed
7.465 km/s
True Right ascension
00h 43m 26s
True Declination
53° 20' 41"
Sunlit
Object was in daylight at epoch
Visualization orbit readout
Latitude
Unknown
Longitude
Unknown
Altitude
Unknown
Speed
Unknown
Apparent Right ascension
Unknown
Apparent Declination
Unknown
Sunlit
N/A
Visualization observer readout
Local Sidereal Time
01:59:59
Azimuth
Unknown
Elevation
Unknown
Doppler factor
Unknown
Orbital elements
Apogee altitude
756.708 km
Perigee altitude
704.942 km
Semi-major axis
7,108.962 km
Eccentricity
0.00364
Inclination
99.031°
RAAN
23.1996°
Arg. of periapsis
205.3433°
True anomaly
209.04397°
Mean anomaly
209.247°
Eccentric anomaly
209.1454°
Mean motion
3.62104 °/min
Orbital period
99.42 mins
BSTAR
0.0014001
Loading maneuver chart data...
Computing Atmospheric mass density...
Loading historical data...
Loading historical data...
Loading historical data...
Loading historical data...
Loading historical data...
Loading historical data...
Loading historical data...

Documentation

Showing up to 5 results
|